Regional Weather Roundup
Issued by NWS Midland/Odessa, TX

Skip options and go directly to product.
Home | Oldest Version | Previous Version | Current Version | All | Graphics & Text | Save Text | Print | Product List | Glossary On

Skip product version selection by date and time.   
778
ASUS44 KMAF 280710
RWRMAF
MIDLAND AREA WEATHER ROUNDUP
NATIONAL WEATHER SERVICE MIDLAND TX
200 AM CDT THU AUG 28 2014

...IN SOUTHWEST TEXAS AND SOUTHEAST NEW MEXICO...

CITY           SKY/WX    TMP DP  RH WIND       PRES   REMARKS
ALPINE         PTCLDY    68  55  62 CALM      30.20F
ANDREWS        FAIR      79  60  52 SE6       30.05F
ARTESIA        NOT AVBL
BIG SPRING     CLEAR     82  57  42 E7        30.05S
CARLSBAD       PTCLDY    74  61  63 W7        30.04F
DRYDEN           N/A     87  60  40 SE12      30.00S
FORT STOCKTON  PTCLDY    81  58  45 S9        30.04F
GUAD PASS      CLOUDY    72  55  55 W12       30.22F
HOBBS          MOCLDY    75  59  57 NE5       30.09F
MARFA          PTCLDY    63  55  77 N6        30.19F
MIDLAND AIRPK  CLEAR     83  59  44 S9        30.04S
MIDLAND INTL   CLEAR     81  60  48 SE12      30.03F
ODESSA         CLEAR     82  59  45 S10       30.04F
PECOS          PTCLDY    78  56  47 SW7       29.99F
PRESIDIO       FAIR      83  56  39 MISG      30.01F
SEMINOLE       PTCLDY    76  59  55 E6        30.08S
SNYDER         CLEAR     81  62  51 SE10      30.04S
WINK           PTCLDY    83  59  44 SE8       30.00F
$$
...OTHER STATIONS IN TEXAS...

CITY           SKY/WX    TMP DP  RH WIND       PRES   REMARKS
ABILENE        CLEAR     80  61  52 SE13      30.02F
AMARILLO       CLEAR     70  63  78 S13       30.07F
AUSTIN         PTCLDY    74  68  81 CALM      29.98S
BROWNSVILLE    MOCLDY    82  78  88 NW8       29.87F
CORPUS CHRISTI PTCLDY    84  75  74 E15       29.89F
DALLAS FTW     CLEAR     78  61  55 SE3       29.98F
DEL RIO        CLEAR     86  63  45 E8        29.94F
EL PASO        PTCLDY    73  62  68 E7        30.11S
HOUSTON INT    PTCLDY    75  73  94 NW3       29.96S
LUBBOCK        CLOUDY    75  63  66 SE9       30.07F
SAN ANGELO     CLEAR     80  62  54 SE5       30.00F
SAN ANTONIO    CLEAR     80  69  69 E7        29.99S
WACO           CLEAR     76  64  66 SE7       29.99S
WICHITA FALLS  NOT AVBL
$$
...OTHER LOCATIONS IN NEW MEXICO...

CITY           SKY/WX    TMP DP  RH WIND       PRES   REMARKS
ALAMAGORDO     PTCLDY    66  57  72 E6        30.15F
ALBUQUERQUE    PTCLDY    68  45  43 N7        30.23F
CANNON AFB     PTCLDY    67  59  73 SE8       30.14R
CLOVIS           N/A     66  57  72 S6        30.15F
HOLLOMAN AFB   PTCLDY    70  61  74 CALM      30.13F
ROSWELL        CLEAR     73  62  68 W7        30.08F
RUIDOSO        PTCLDY    59  52  77 W3        30.33F
SANTA FE       CLEAR     53  45  74 CALM      30.27S
TRUTH OR CONSE PTCLDY    67  59  75 W6        30.20F
TUCUMCARI      CLEAR     69  58  67 SW8       30.08F
$$

USA.gov is the U.S. government's official web portal to all federal, state and local government web resources and services.